Rbgn^[z[y[W
メイン
   新天体発見情報
     Comet C/2024 F2 (PANSTARRS)
投稿するにはまず登録を

スレッド表示 | 新しいものから 前のトピック | 次のトピック | 下へ
投稿者 スレッド
佐藤裕久
投稿日時: 2024-4-28 20:54
モデレータ
登録日: 2005-6-12
居住地: 日本
投稿: 2689
オンライン
Comet C/2024 F2 (PANSTARRS)

Y. Ramanjooloo (ハワイ大学天文研究所)の通報によると、3月21日、HaleakalaにあるPan-STARRS1の
1.8-m Ritchey-Chretien 反射望遠鏡で得た3枚の45-秒のw-バンドサーベイ画像から彗星を発見した。
1".3のシーイングで、約2".1(半値全幅:FWHM)の集光したコマが見え、p.a. 282°に2".5のやや広がっ
た尾がある。
小惑星センターのPCCP webpageに公表後、佐藤英貴氏(東京都文京区, 4月2.75日UT、120-秒CCD露出
8枚のスタック, 0.51-m f/6.8 アストログラフ, Siding Spring, NSW, オーストラリア, 遠隔操作:
中程度に集光した8" のコマが見えるが尾はなかった。4".3の円形範囲で測定した光度は20.0等であっ
た)らCCD位置観測者によって彗星状と観測された。

彗星機能の報告は次のとおり、

OC   Date        Reporter           Coma    Tail    PA          Exposures
W85  2024-03-23  P. Breitenstein    4"      5"     235-245        4x360s
W85  2024-03-23  A. L. Holm         4"     16"     270-290        4x120s
V38  2024-03-27  P. Breitenstein    4"                           24x120s
W85  2024-04-02  P. Breitenstein    3"      4"     265-275        8x90s
Q62  2024-04-03  H. Sato            8"                            8x120s
T14  2024-04-05  R. Weryk           0".4   20"     275            6x60s

発見位置は次のとおり、

     2024 UT             R.A. (2000) Decl.       Mag.
     Mar. 21.60554   16 23 11.29   - 5 32 42.7   21.0
          21.61410   16 23 11.41   - 5 32 41.1   20.8
          21.63135   16 23 11.66   - 5 32 38.0   20.7

MPCの楕円軌道要素、位置推算表は次のとおり、

Orbital elements:
    C/2024 F2 (PANSTARRS)                                                       
Epoch 2024 Mar. 31.0 TT = JDT 2460400.5                                         
T 2024 Aug. 6.30412 TT                                  Rudenko                 
q   3.9557057            (2000.0)            P               Q                  
n   0.03169532     Peri.  114.34246     -0.27237057     +0.94939903             
a   9.8887027      Node   138.82718     -0.94626202     -0.23484718             
e   0.5999773      Incl.   13.74167     -0.17436301     -0.20853845             
P  31.1                                                                         
From 48 observations 2024 Mar. 21-Apr. 7, mean residual 0".4.                   
                                                                                
Ephemeris:
Date    TT    R. A. (2000) Decl.     Delta      r    Elong.  Phase   m1
2024 03 10    16 19 15.3 -06 02 47   3.7074  4.0792   105.0    13.6  20.0
...
2024 03 25    16 23 57.3 -05 22 59   3.4887  4.0561   118.2    12.5  19.8
...
2024 04 02    16 25 03.4 -04 58 58   3.3831  4.0447   125.4    11.6  19.7
...
2024 04 08    16 25 13.7 -04 40 22   3.3104  4.0365   130.8    10.8  19.7
2024 04 09    16 25 12.1 -04 37 15   3.2989  4.0352   131.7    10.7  19.7
2024 04 10    16 25 09.6 -04 34 08   3.2875  4.0339   132.6    10.5  19.6
...
2024 04 16    16 24 35.8 -04 15 39   3.2235  4.0263   138.1     9.6  19.6
...
2024 04 24    16 23 03.2 -03 52 07   3.1497  4.0167   145.2     8.2  19.5
...
2024 05 09    16 18 05.4 -03 15 22   3.0514  4.0006   157.1     5.6  19.4

(MPEC 2024-G103、CBET 5380)

スレッド表示 | 新しいものから 前のトピック | 次のトピック | トップ

投稿するにはまず登録を
 
© 1999 Tsutomu Seki.